Regional Weather Roundup
Issued by NWS Charleston, SC

Current Version | Previous Version | Text Only | Print | Product List | Glossary Off
Versions: 1 2 3 4 5 6 7 8 9 10 11 12 13 14 15 16 17 18 19 20 21 22 23 24 25 26 27 28 29 30 31 32 33 34 35 36 37 38 39 40 41 42 43 44 45 46 47 48 49 50

000
ASUS42 KCHS 010926
RWRCHS

REGIONAL WEATHER ROUNDUP
NATIONAL WEATHER SERVICE CHARLESTON SC
500 AM EDT WED APR 01 2015

NOTE: "FAIR" INDICATES FEW OR NO CLOUDS BELOW 12,000 FEET WITH NO
SIGNIFICANT WEATHER AND/OR OBSTRUCTIONS TO VISIBILITY.

NOT ALL STATIONS ARE QUALITY CONTROLLED BY THE NATIONAL
WEATHER SERVICE. USE DATA WITH CAUTION...ESPECIALLY
DEWPOINT OBSERVATIONS.

SCZ027-030-031-034>040-042>050-011000-
...SOUTHEAST SOUTH CAROLINA...

CITY           SKY/WX    TMP DP  RH WIND       PRES   REMARKS
N CHARLESTON   PTCLDY    63  52  67 W8        29.91R
WATERFRONT PRK   N/A     63 N/A N/A SW3         N/A
MOUNT PLEASANT FAIR      64  54  68 CALM      29.92R
PINOPOLIS        N/A     64  55  72 SW7       29.82R
MONCKS CORNER  FAIR      64  52  63 W5        29.90R
SUMMERVILLE    FAIR      61  54  77 SW5       29.92R
BEAUFORT MCAS  PTCLDY    65  52  62 W12       29.94R
BEAUFORT ARPT  FAIR      64  55  72 W10G16    29.93F
HILTON HEAD IS PTCLDY    64  55  72 SW8       29.96S
WALTERBORO     PTSUNNY   63  52  67 W6        29.93S
ALLENDALE      FAIR      63  55  77 CALM      29.94R

...SOUTHERN MIDLANDS AND PEE DEE...

CITY           SKY/WX    TMP DP  RH WIND       PRES   REMARKS
GEORGETOWN     NOT AVBL
KINGSTREE      NOT AVBL
ORANGEBURG     CLOUDY    66  50  56 W8        29.90S
BARNWELL       FAIR      63  54  72 SW8       29.95R
AIKEN          FAIR      59  50  72 W7        29.96R
MANNING        FAIR      63  46  55 CALM      29.90R
COLUMBIA       MOCLDY    62  52  69 W6        29.89R
SUMTER         MOCLDY    62  53  72 W6        29.86S
FLORENCE       MOCLDY    61  53  75 W6        29.87R
MYRTLE BEACH   MOCLDY    63  54  72 W9        29.89S
N MYRTLE BEACH PTCLDY    63  55  75 W7        29.86R

$$

GAZ063-065-086>088-099>101-113>116-118-119-134>141-150-011000-
...SOUTHEAST GEORGIA...

CITY           SKY/WX    TMP DP  RH WIND       PRES   REMARKS
SAVANNAH ARPT  MOCLDY    59  56  89 SW9       29.97R
HUNTER AAF     MOCLDY    59  59 100 W8        29.95R
FORT STEWART   MOCLDY    59  56  90 W5        29.96R
STATESBORO     MOCLDY    60  56  87 W6        29.96R
SYLVANIA       PTSUNNY   58  57  96 W5        29.96R
CLAXTON        FAIR      57  57 100 SW3       29.97F

...CSRA...CENTRAL AND FAR SOUTHEAST GEORGIA...

CITY           SKY/WX    TMP DP  RH WIND       PRES   REMARKS
THOMSON        MOCLDY    64  57  78 CALM      30.00R
AUGUSTA-BUSH   PTCLDY    63  51  65 W8        29.94R
AUGUSTA-DANIEL PTCLDY    66  50  56 VRB7      29.94R
SWAINSBORO     CLOUDY    61  61 100 NW8       30.00R
VIDALIA        CLEAR     57  55  94 SW3       29.89F
EASTMAN        CLOUDY    57  57 100 CALM      29.95R
HAZLEHURST     FAIR      59  59 100 CALM      29.98S
ALMA           CLEAR     58  54  86 SW3       29.99S
WAYCROSS       CLEAR     63  61  92 SW6       30.00S
JESUP          FAIR      59  57  94 W3        29.99S
BAXLEY         FAIR      57  55  94 CALM      29.98F
BRUNSWICK      CLEAR     63  55  77 SW8       29.99S
SAINT SIMONS   CLEAR     62  57  83 SW8       29.99S

$$

SCZ027-028-034-036>038-045-046-048>050-GAZ119-141-011000-
...LAKE AND SUPPLEMENTAL COASTAL OBSERVATIONS...

STATION/POSITION TIME  TEMP    WIND        PRES    WAVE   SWELL
                       AIR SEA DIR/SP/G            HT/PER HT/PER/DIR
                 (UTC) (F)     (DEG/KT/KT) (MB)    (FT/S) (FT/S/D)
UPR LAKE MARION  NOT AVBL
WINYAH BAY       0800   65     250/  5     1011.0S
LAKE MURRAY      0900   62     270/  8/ 10 1011.9R
ACE BASIN NERRS  NOT AVBL
FORT PULASKI     0900   62 60  240/  6/  9 1015.1R
SAPELO ISLAND    0900   60     220/  6     1015.0S

$$

ANZ835-935-AMZ111-154-330-350-352-354-370-450-454-472-011000-
...C-MAN AND BUOY OBSERVATIONS...

STATION/POSITION TIME  TEMP    WIND        PRES    WAVE   SWELL
                       AIR SEA DIR/SP/G            HT/PER HT/PER/DIR
                 (UTC) (F)     (DEG/KT/KT) (MB)    (FT/S) (FT/S/D)
BUOY 41004       0850   68 68  260/ 16/ 17 1011.8F   5/ 6   2/ 9
BUOY 41008       0850   63 61  230/ 16/ 17 1015.0R   2/ 4
FOLLY BEACH CMAN 0900   63     240/  8/ 10 1013.2R
CAPERS NEARSHORE NOT AVBL
FRIPP NEARSHORE  0800   62     270/  8/ 10 1013.1R


STATION/POSITION TIME  TEMP    WIND        PRES    WAVE   SWELL
                       AIR SEA DIR/SP/G            HT/PER HT/PER/DIR
                 (UTC) (F)     (DEG/KT/KT) (MB)    (FT/S) (FT/S/D)
5E ST. MARYS GA  0821      62                N/A     2/ 4
FRYING PAN BUOY  0850   66 63  250/ 17/ 19 1011.2S   6/ 6   2/170/11
BUOY 41025       NOT AVBL
CAPE LOOKOUT NC  0900   58      10/  7/  9 1011.1R
BUOY 41002       0850   69 68  230/ 16/ 19 1012.9F   7/ 7
BUOY 41010       0820   74 75  280/ 23/ 27 1016.3F
ST AUGUSTINE FL  0900   65 62  250/  5/  7 1017.2F


$$


USA.gov is the U.S. government's official web portal to all federal, state and local government web resources and services.